Location: Barrialito
(10.3588°N, 66.9747°W)
Time: 15:06:10
(UTC+00:00)

Cosmos 1862 Rocket - Pass Details

Date: 04 July 2022
Orbit: 603 x 633 km, 82.5° (Epoch: 13 August)

Event Time Altitude Azimuth Distance (km) Brightness Sun altitude
Rises 08:50:13 0° 1° (N) 2,843 7.4 -18.7°
Reaches altitude 10° 08:52:26 10° 5° (N) 1,942 6.5 -18.2°
Maximum altitude 08:56:40 61° 85° (E) 689 4.0 -17.3°
Drops below altitude 10° 09:00:56 10° 166° (SSE) 1,954 6.0 -16.4°
Sets 09:03:11 0° 170° (S) 2,862 6.8 -15.9°
